Location: Gleizolles
(44.4833°N, 6.7667°E)
Time: 03:05:17
(UTC+00:00)

TIGRISAT - Visible Passes

Search period start: 27 February 2024 00:00
Search period end: 08 March 2024 00:00
Orbit: 597 x 674 km, 97.7° (Epoch: 26 February)

Date Brightness Start Highest point End Pass type
(mag) Time Alt. Az. Time Alt. Az. Time Alt. Az.
29 Feb ? 02:54:27 12° N 02:54:27 12° N 02:54:51 10° N visible
29 Feb ? 17:47:44 10° NNW 17:51:02 20° WNW 17:54:18 10° WSW visible
01 Mar ? 03:16:20 15° N 03:16:20 15° N 03:17:14 10° N visible
01 Mar ? 18:10:53 10° NW 18:12:49 13° WNW 18:14:44 10° W visible
02 Mar ? 03:38:13 18° N 03:38:13 18° N 03:39:26 10° N visible
03 Mar ? 02:22:37 14° NE 02:22:37 14° NE 02:23:47 10° NNE visible
03 Mar ? 04:00:04 19° NNW 04:00:04 19° NNW 04:01:26 10° NNW visible
04 Mar ? 02:44:27 20° NE 02:44:27 20° NE 02:46:32 10° N visible
04 Mar ? 04:21:54 18° NW 04:21:54 18° NW 04:23:15 10° NNW visible
05 Mar ? 03:06:15 30° NNE 03:06:15 30° NNE 03:08:58 10° N visible
05 Mar ? 04:43:42 15° NW 04:43:42 15° NW 04:44:47 10° NW visible
05 Mar ? 18:02:11 10° NNW 18:04:41 15° WNW 18:07:10 10° W visible
06 Mar ? 03:28:02 42° N 03:28:02 42° N 03:31:11 10° N visible
06 Mar ? 05:05:29 10° WNW 05:05:29 10° WNW 05:05:40 10° WNW visible
07 Mar ? 02:12:21 14° ENE 02:12:48 14° ENE 02:15:10 10° NNE visible
07 Mar ? 03:49:48 48° NNW 03:49:48 48° NNW 03:53:14 10° NNW visible
